• Join FlightAware (Why Join?)
  • Login
  • US Flag GB Flag 
17:57 EDT


 

Airport Tracker/Info


-or-


 

Live Flight TrackerFlight Track Log ✈ N6045S ✈ 04-Jul-2013 ✈ KHTO - KTEB

Flight Track Log - Related Links

Times and Time Zones

All times are in EDT time to prevent confusion due to time zone crossing. See the N6045S flight status page for this flight to view local times or setup timezone preferences in your user account.

Time Position Orientation Groundspeed Altitude Reporting Facility
EDT Latitude Longitude Course Direction KTS MPH feet Rate Location/Type
23:16 40.9500 -72.2833 237° Southwest 116 133 1,500  Level New York TRACON
23:17 40.9333 -72.3167 237° Southwest 147 169 2,100 1,260 Climbing New York TRACON
23:18 40.9167 -72.3667 246° West 140 161 3,900 1,500 Climbing New York TRACON
23:19 40.9167 -72.4167 270° West 147 169 5,000 1,380 Climbing New York TRACON
23:20 40.9167 -72.4667 270° West 141 162 6,400 1,440 Climbing New York TRACON
23:21 40.9167 -72.5167 270° West 139 160 7,900 1,260 Climbing New York TRACON
23:22 40.9167 -72.5833 270° West 141 162 9,100 720 Climbing New York TRACON
23:23 40.9167 -72.6500 270° West 177 204 9,500  Climbing New York TRACON
23:24 40.9167 -72.7167 270° West 221 254 9,100 -480 Descending New York TRACON
23:25 40.9000 -72.8000 255° West 230 265 8,700 -300 Descending New York TRACON
23:26 40.9000 -72.8833 270° West 230 265 8,600 -60 Descending New York TRACON
23:27 40.9000 -72.9667 270° West 225 259 8,600  Level New York TRACON
23:28 40.9000 -73.0500 270° West 226 260 8,600 -60 Level New York TRACON
23:29 40.9000 -73.1333 270° West 228 262 8,500  Descending New York TRACON
23:30 40.9000 -73.2167 270° West 223 257 8,600  Climbing New York TRACON
23:31 40.9000 -73.3000 270° West 224 258 8,600  Level New York TRACON
23:32 40.9000 -73.3833 270° West 225 259 8,600 -60 Level New York TRACON
23:33 40.9000 -73.4667 270° West 226 260 8,500 -480 Descending New York TRACON
23:34 40.9167 -73.5500 285° West 235 270 7,700 -960 Descending New York TRACON
23:35 40.9167 -73.6333 270° West 234 269 6,600 -1,200 Descending New York TRACON
23:36 40.9333 -73.7167 285° West 228 262 5,500 -1,200 Descending New York TRACON
23:37 40.9500 -73.7833 288° West 219 252 4,400 -1,260 Descending New York TRACON
23:38 40.9333 -73.8667 255° West 214 246 3,000 -1,200 Descending New York TRACON
23:39 40.9167 -73.9333 252° West 182 209 2,100 -780 Descending New York TRACON
23:40 40.9000 -73.9833 246° West 157 181 1,500 -660 Descending New York TRACON
23:41 40.8833 -74.0167 237° Southwest 113 130 800 -600 Descending New York TRACON
23:42 40.8667 -74.0500 237° Southwest 102 117 300 -540 Descending New York TRACON